State College, PA

8:35 PM EDT on June 27, 2017 (GMT -0400)
University Park

Weather History for KUNV - January, 2013

Change the Weather History Date:

Wednesday, January 2, 2013

  Actual Average Record
Temperature  
Mean Temperature 28 °F -  
Max Temperature 39 °F 35 °F 61 °F (1930)
Min Temperature 17 °F 19 °F 0 °F (1968)
Degree Days  
Heating Degree Days 37    
Moisture  
Dew Point 10 °F    
Average Humidity 63    
Maximum Humidity 73    
Minimum Humidity 33    
Precipitation  
Precipitation 0.00 in - - ()
Sea Level Pressure  
Sea Level Pressure 30.07 in    
Wind  
Wind Speed 7 mph (West)    
Max Wind Speed 14 mph    
Max Gust Speed -    
Visibility 10 miles    
Events Snow    
Averages and records for this station are not official NWS values.
T = Trace of Precipitation, MM = Missing Value Source: NWS Daily Summary

Daily Weather History Graph

Daily Weather History Graph

Search for Another Location

Airport or City:

Trip Planner

Search our weather history database for the weather conditions in past years. The results will help you decide how hot, cold, wet, or windy it might be!

Date:

Astronomy

Jan. 02, 2013 Rise Set
Actual Time 7:35 AM EST 4:55 PM EST
Civil Twilight 7:05 AM EST 5:26 PM EST
Nautical Twilight 6:30 AM EST 6:00 PM EST
Astronomical Twilight 5:57 AM EST 6:33 PM EST
Moon 10:28 PM EST (1/2) 10:14 AM EST (1/2)
Length of Visible Light 10h 21m
Length of Day
9h 19m
Waning Gibbous, 75% of the Moon is Illuminated
Jan 2
Waning Gibbous
Jan 4
Last Quarter
Jan 11
New
Jan 18
First Quarter
Jan 26
Full

Hourly Weather History & Observations

Time (EST) Temp. Windchill Dew Point Humidity Pressure Visibility Wind Dir Wind Speed Gust Speed Precip Events Conditions
12:15 AM 23.0 °F 15.8 °F 9.5 °F 56% 29.99 in 10.0 mi WNW 5.8 mph - N/A   Overcast
12:35 AM 23.0 °F 14.7 °F 10.2 °F 58% 29.99 in 10.0 mi WNW 6.9 mph - N/A   Overcast
12:55 AM 23.0 °F 17.0 °F 10.4 °F 59% 29.99 in 10.0 mi West 4.6 mph - N/A   Overcast
1:15 AM 23.0 °F 13.9 °F 10.8 °F 60% 29.99 in 10.0 mi WNW 8.1 mph - N/A   Overcast
1:35 AM 22.8 °F 13.6 °F 10.9 °F 60% 29.98 in 10.0 mi West 8.1 mph - N/A   Overcast
1:55 AM 22.6 °F 11.9 °F 10.4 °F 59% 29.98 in 10.0 mi WNW 10.4 mph - N/A   Overcast
2:15 AM 22.5 °F 12.4 °F 10.2 °F 59% 29.99 in 10.0 mi WNW 9.2 mph - N/A   Overcast
2:35 AM 21.9 °F 11.7 °F 10.2 °F 61% 29.99 in 10.0 mi WNW 9.2 mph - N/A   Mostly Cloudy
2:55 AM 21.6 °F 14.0 °F 10.0 °F 61% 29.99 in 10.0 mi West 5.8 mph - N/A   Mostly Cloudy
3:15 AM 20.8 °F 14.4 °F 9.5 °F 62% 29.99 in 10.0 mi West 4.6 mph - N/A   Clear
3:35 AM 20.7 °F 13.0 °F 9.5 °F 62% 29.99 in 10.0 mi West 5.8 mph - N/A   Scattered Clouds
3:55 AM 19.6 °F 8.9 °F 9.5 °F 65% 30.00 in 10.0 mi WSW 9.2 mph - N/A   Scattered Clouds
4:15 AM 18.9 °F 8.0 °F 9.5 °F 67% 30.00 in 10.0 mi WSW 9.2 mph - N/A   Scattered Clouds
4:35 AM 19.0 °F 10.0 °F 9.5 °F 66% 30.00 in 10.0 mi West 6.9 mph - N/A   Clear
5:53 AM 17.6 °F 6.4 °F 8.6 °F 68% 30.00 in 10.0 mi West 9.2 mph - N/A   Scattered Clouds
6:53 AM 17.6 °F 5.0 °F 8.6 °F 68% 30.04 in 10.0 mi West 11.5 mph - N/A   Mostly Cloudy
7:53 AM 19.4 °F 7.2 °F 8.6 °F 63% 30.05 in 10.0 mi West 11.5 mph - N/A   Mostly Cloudy
8:53 AM 19.4 °F 7.2 °F 8.6 °F 63% 30.07 in 10.0 mi West 11.5 mph - N/A   Scattered Clouds
9:53 AM 21.2 °F 9.5 °F 10.4 °F 63% 30.08 in 10.0 mi West 11.5 mph - N/A   Mostly Cloudy
10:53 AM 23.0 °F 10.6 °F 12.2 °F 63% 30.08 in 10.0 mi West 13.8 mph - N/A   Overcast
11:53 AM 23.0 °F 11.7 °F 12.2 °F 63% 30.07 in 6.0 mi West 11.5 mph - N/A Snow Light Snow
12:53 PM 39.2 °F 33.0 °F 12.2 °F 33% 30.07 in 7.0 mi West 9.2 mph - N/A   Unknown
1:53 PM 24.8 °F 12.9 °F 12.2 °F 59% 30.08 in 10.0 mi West 13.8 mph - N/A   Mostly Cloudy
2:53 PM 24.8 °F 14.6 °F 10.4 °F 54% 30.08 in 10.0 mi WNW 10.4 mph - N/A   Mostly Cloudy
3:53 PM 24.8 °F 15.3 °F 10.4 °F 54% 30.09 in 10.0 mi NW 9.2 mph - N/A   Scattered Clouds
4:53 PM 24.8 °F 16.9 °F 10.4 °F 54% 30.10 in 10.0 mi NW 6.9 mph - N/A   Partly Cloudy
5:53 PM 23.0 °F 17.0 °F 10.4 °F 59% 30.11 in 10.0 mi WNW 4.6 mph - N/A   Partly Cloudy
6:53 PM 23.0 °F 15.8 °F 10.4 °F 59% 30.13 in 10.0 mi West 5.8 mph - N/A   Clear
7:53 PM 21.2 °F 14.9 °F 10.4 °F 63% 30.13 in 10.0 mi West 4.6 mph - N/A   Clear
8:15 PM 17.6 °F 12.3 °F 8.8 °F 68% 30.13 in 10.0 mi South 3.5 mph - N/A   Clear
8:35 PM 17.6 °F 10.7 °F 9.0 °F 69% 30.14 in 10.0 mi SSW 4.6 mph - N/A   Clear
8:53 PM 17.6 °F 10.7 °F 10.4 °F 73% 30.14 in 10.0 mi WSW 4.6 mph - N/A   Scattered Clouds
8:55 PM 19.6 °F 14.5 °F 10.4 °F 68% 30.14 in 10.0 mi SW 3.5 mph - N/A   Mostly Cloudy
9:15 PM 20.1 °F 13.6 °F 10.4 °F 66% 30.15 in 10.0 mi West 4.6 mph - N/A   Scattered Clouds
9:35 PM 19.9 °F - 10.4 °F 67% 30.15 in 10.0 mi Calm Calm - N/A   Clear
9:55 PM 19.8 °F 13.2 °F 10.4 °F 67% 30.15 in 10.0 mi WNW 4.6 mph - N/A   Clear
10:15 PM 19.8 °F 14.7 °F 10.2 °F 67% 30.16 in 10.0 mi SW 3.5 mph - N/A   Clear
10:35 PM 18.3 °F - 10.4 °F 71% 30.17 in 10.0 mi Calm Calm - N/A   Clear
10:55 PM 18.7 °F - 10.4 °F 70% 30.17 in 10.0 mi Calm Calm - N/A   Clear
11:15 PM 19.2 °F - 10.4 °F 69% 30.18 in 10.0 mi Calm Calm - N/A   Clear
11:35 PM 19.0 °F 12.3 °F 10.2 °F 69% 30.18 in 10.0 mi West 4.6 mph - N/A   Clear
11:55 PM 17.1 °F 10.0 °F 9.5 °F 72% 30.17 in 10.0 mi SW 4.6 mph - N/A   Clear